MMS 2

Last updated on Thu Sep 10 2026 00:02:50 GMT+0000 (Coordinated Universal Time)

1 40483U 15011B 26252.58335648 -.00002029 00000+0 00000+0 0 9998 2 40483 72.8933 347.8010 8260697 169.2506 267.6576 0.28283739 1409
UTC large
Height (km)
Speed (km/s)
/
Latitude / Longitude
Inclination (degrees)
Orbital Period (minutes)
Azimuth
Elevation
Range (km)
Doppler Factor

Next 0 passes for location: London (51.5072 / 0.1276)

No passes found over London.
MMS 2